{"data":{"norad_id":59646,"intl_designator":"2024-082R","name":"STARLINK-31796","alt_names":[],"object_type":"PAYLOAD","status":"ACTIVE","operator":null,"country":"US","launch_date":"2024-05-03","launch_site_code":"AFETR","launch_vehicle":null,"mission":null,"orbit_class":"UNKNOWN","rcs_meters":null,"size_class":null,"mass_kg":null,"dimensions":null,"purposes":["comms"],"wikipedia_slug":null,"has_3d_model":false,"image_url":null,"decayed_at":null,"tle_current":{"epoch":"2026-09-21T00:09:29.506464Z","epoch_age_seconds":124472,"freshness":"FRESH","line1":"1 59646U 24082R   26264.00659151 -.00000201  00000+0  22041-5 0  9990","line2":"2 59646  43.0018 116.7142 0000929 301.1801  58.8960 15.27574365134845","mean_motion":15.27574365,"eccentricity":9.29e-5,"inclination_deg":43.0018,"raan_deg":116.7142,"arg_perigee_deg":301.1801,"mean_anomaly_deg":58.896,"bstar":2.2041e-6,"rev_number":13484,"period_min":94.267096449998,"perigee_km":482.42856355285,"apogee_km":483.70337506455,"semimajor_km":6861.2029693087,"source":"CELESTRAK","updated_at":"2026-09-22T09:00:49.022019Z"}}}